Погода в Горностаевке

Украина / Херсонская область     47°00′37″N   33°43′41″E
темп.,
°C
ветер,
м/с
пор.,
м/с
влажн.,
%
обл.,
%
осадки,
мм/ч
давл.,
гПа
погр.,
м
18 апреля, вс
вс1800:00+8ююз3372100 0.0 102048
03:00+8юз1173100 0.0 101910
06:00+8ююв117286 0.0 101911
09:00+9в116846 0.0 1018112
12:00+11в126396 0.0 1018389
15:00+12ссз115618 0.0 1017454
18:00+13с325526 0.0 1016183
21:00+10в3370100 0.0 101733
19 апреля, пн
пн1900:00+9ю338658 0.0 101745
03:00+9зюз2288100 0.0 101717
06:00+9сз118886 0.0 101610
09:00+10св1278100 0.0 101698
12:00+11св127179 0.0 1016367
15:00+12с3464100 0.0 1014179
18:00+13св3464100 0.0 101361
21:00+11св5766100 0.0 101299
20 апреля, вт
вт2000:00+10всв4676100 0.0 101082
03:00+9вюв4687100 0.7 1008149
06:00+9св71394100 5.9 1004523
09:00+9всв81496100 14.9 1001569
12:00+9в3598100 10.1 999225
15:00+9юз5895100 14.0 999296
18:00+9ссз81292100 2.2 999593
21:00+8сз91286100 3.4 1004739
21 апреля, ср
ср2100:00+9з81386100 0.4 1007482
03:00+8з61185100 0.5 1011399
06:00+7з5986100 0.0 1013341
09:00+8з5775100 0.0 1016478
12:00+11з4665100 0.0 1017329
15:00+12з456362 0.1 1017410
18:00+12юз4673100 0.5 1017152
21:00+11зюз348198 0.8 101949
22 апреля, чт
чт2200:00+9юз458447 0.0 1020100
03:00+8ю459098 0.0 1020144
06:00+8ю479094 0.1 1020212
09:00+10ююз4789100 0.3 1021218
12:00+13ююз576923 0.3 1021415
15:00+13ююз676498 0.4 1020399
18:00+13юз576831 0.0 1020121
21:00+10ююз58815 0.0 102197